www.pogodaiklimat.ru

АРХИВ ПОГОДЫ в Детройте

Время (UTC), дата Ветер
(напр.,м/с)
 
Видим.   Явления Облачность Т
(С)
Тd
(С)
f
(%)
Тe
(С)
Тes
(С)
Комфортность

P
(гПа)

Po
(гПа)
Тmin
(С)
Tmax
(С)
R
(мм)
SD
(см)
23:53 25.05 З  16 км    2/2 1200 м
[верхняя] 
+24.4  +16.7  62  +28  +28  душно  1013.1  990.3         
00:53 26.05 ЮЗ  16 км    ясно  +22.8  +16.7  68  +27  +27  душно  1013.5  990.7         
01:53 26.05 Ю  16 км    ясно  +20.6  +16.1  75  +24  +24  комфорт  1013.8  991.0         
02:53 26.05 Ю  16 км    ясно  +20.0  +16.1  78  +23  +23  комфорт  1013.7  991.0         
03:53 26.05 Ю  16 км    ясно  +19.4  +16.1  81  +21  +21  комфорт  1013.4  990.7         
04:53 26.05 ЮЗ  16 км    2/0 6000 м
[средняя] 
+18.9  +16.1  84  +20  +20    1013.5  990.7  +18.9  +25.6     
05:53 26.05 ЮЗ  13 км    5/0 6000 м
[средняя] 
+19.4  +16.7  84  +22  +22  комфорт  1013.6  991.0         
06:53 26.05 ЮЗ  11 км    8/2 1500 м
[средняя] 
+19.4  +17.2  87  +22  +22  комфорт  1013.3  990.3         
07:53 26.05 ЮЗ  8 км  дымка  8/2 1500 м
[средняя] 
+18.9  +17.2  90  +20  +20    1013.3  990.3         
08:53 26.05 ЮЗ  13 км    10/2 1200 м
[средняя верхняя] 
+18.9  +17.2  90  +20  +20    1014.1  991.3         
09:53 26.05 З  13 км    10/0 2100 м
[средняя верхняя] 
+19.4  +16.7  84  +22  +22  комфорт  1014.8  992.0         
10:53 26.05 З  13 км    10/0 3000 м
[средняя верхняя] 
+19.4  +16.7  84  +22  +22  комфорт  1015.6  992.6  +18.3  +20.0     
11:53 26.05 ЮЗ  14 км    10/0 2100 м
[средняя верхняя] 
+20.0  +16.7  81  +23  +24  комфорт  1016.2  993.3         
12:53 26.05 З  16 км    10/5 480 м
[средняя] 
+21.1  +16.7  76  +25  +25  комфорт  1016.3  993.3         
13:28 26.05 СВ  16 км    10/8 540 м
[средняя] 
+19.4  +12.2  63  +20  +21      993.6         
13:41 26.05 СВ  16 км    10/5 540 м
[средняя] 
+19.4  +12.2  63  +21  +22  комфорт    993.3         
13:53 26.05 СВ  16 км    10/2 540 м
[средняя] 
+19.4  +12.2  63  +21  +22  комфорт  1016.6  993.6         
14:53 26.05 СВ  10 км  слабый дождь  10/2 1950 м
[средняя] 
+18.9  +12.2  65  +19  +21    1016.4  993.3         
15:43 26.05 СВ  16 км    10/8 570 м
[средняя] 
+20.0  +13.3  65  +22  +23  комфорт    993.6         
15:53 26.05 СВ  14 км  слабый дождь  10/8 540 м
[средняя] 
+19.4  +12.8  66  +21  +21  комфорт  1016.5  993.6         
16:53 26.05 В  16 км    10/10 600 м  +19.4  +13.9  70  +21  +21  комфорт  1016.7  993.6  +18.9  +21.7  0.5   
17:53 26.05 В  16 км    10/10 420 м  +20.0  +13.9  68  +22  +22  комфорт  1016.7  993.6         
18:13 26.05 В  14 км  слабый дождь  10/10 600 м  +20.0  +13.9  68  +22  +22  комфорт    993.6         
18:53 26.05 В  14 км  слабый дождь  10/8 450 м
[средняя] 
+20.0  +13.9  68  +22  +23  комфорт  1016.7  993.6         
19:53 26.05 В  13 км  слабый дождь  10/8 1350 м
[средняя] 
+19.4  +14.4  73  +21  +22  комфорт  1016.5  993.6         
20:39 26.05 СВ  16 км  слабый дождь  10/10 540 м  +19.4  +15.0  76  +21  +21  комфорт    993.6         
20:53 26.05 СВ  16 км    10/10 420 м  +18.9  +15.0  78  +20  +20    1016.9  994.0         
21:53 26.05 СВ  13 км  слабый дождь  8/8 450 м
[средняя] 
+18.3  +15.0  81  +19  +20    1016.8  993.6         
22:43 26.05 В  16 км    8/5 690 м
[средняя] 
+18.3  +14.4  78  +19  +19      994.0         
22:53 26.05 СВ  16 км    8/5 360 м
[средняя] 
+18.9  +15.0  78  +20  +21    1017.0  994.0  +18.3  +20.0     
23:13 26.05 В  10 км  мгла  8/8 390 м
[средняя] 
+18.3  +14.4  78  +19  +19      994.3         
23:28 26.05 В  11 км    8/5 360 м
[средняя] 
+17.8  +14.4  80  +18  +18      994.0         
23:53 26.05 СВ  14 км    8/5 270 м
[средняя] 
+16.7  +12.2  75  +16  +16    1017.4  994.3         
00:53 27.05   14 км    2/0 7500 м
[верхняя] 
+15.6  +11.1  75  +15  +15    1017.8  994.6         
01:53 27.05   16 км    ясно  +14.4  +11.7  84  +14  +14    1018.1  995.0         
02:53 27.05   13 км    ясно  +13.3  +10.6  84  +13  +13    1018.5  995.3         
03:53 27.05   10 км  мгла  ясно  +13.3  +10.6  84  +13  +13    1018.5  995.3         
04:53 27.05   8 км  мгла  2/0 6000 м
[средняя] 
+12.2  +9.4  83  +12  +12    1018.3  995.0  +12.2  +18.9     
05:53 27.05 СЗ  10 км  дымка  2/0 6000 м
[средняя] 
+11.1  +8.9  86  +10  +10    1018.3  995.0         
06:53 27.05   6 км  мгла  2/0 6000 м
[средняя] 
+11.7  +8.9  83  +11  +11    1018.2  995.0         
07:33 27.05   5 км  дымка  5/2 90 м
[средняя] 
+11.1  +8.9  86  +10  +10      995.0         
07:45 27.05   4 км  дымка  5/2 90 м
[средняя] 
+10.6  +8.3  86  +10  +10      995.0         
07:53 27.05   4 км  дымка  5/2 90 м
[средняя] 
+10.6  +8.3  86  +10  +10    1018.2  995.0         
08:53 27.05   4 км  дымка  8/2 90 м
[средняя] 
+10.6  +8.3  86  +10  +10    1018.9  995.6         
09:39 27.05   5 км  дымка  8/0 3900 м
[средняя] 
+11.1  +9.4  89  +10  +10      995.6         
09:53 27.05   5 км  дымка  8/0 3900 м
[средняя] 
+11.7  +9.4  86  +11  +11    1019.2  995.9         
10:53 27.05 СВ  11 км    8/0 3900 м
[средняя] 
+13.3  +10.0  80  +12  +12    1019.2  995.9  +10.0  +13.3     
11:53 27.05 СВ  11 км    5/0 3900 м
[средняя верхняя] 
+16.7  +9.4  62  +17  +18    1019.9  996.6         

 

Местоположение метеостанции Detroit Metropolitan Wayne County Airport: широта 42.2314 долгота -83.3308 высота над уровнем моря 194 м.

В архиве по умолчанию представлена погода в Детройте за последние 1-2 суток. Обновление информации о фактической погоде в базе происходит ежечасно! Архивные данные за месяц целиком и за предыдущие месяцы Вы можете получить, выбрав интересующий диапазон дат из раскрывающегося списка и нажав кнопку "Ввод!".

Внимание! Архив погоды МЕТАР в базе сайта в настоящее время начинается c 1 января 2011 г. Нет смысла пытаться выбрать более раннюю дату.

Внимание! Время в таблицах - всемирное. Для получения местного времени необходимо прибавить поправку, которая в Детройте равна -5 ч.

Ветер - указаны скорость ветра в м/с и направление, откуда дует ветер: С - северный, СВ - северо-восточный, В - восточный, ЮВ - юго-восточный, Ю - южный, ЮЗ - юго-западный, З - западный, СЗ - северо-западный.
Видимость - горизонтальная дальность видимости в метрах или километрах. При видимости от 1 до 10 км при отсутствии осадков обычно наблюдается дымка, при ухудшении видимости до 1 км и менее - туман. В сухую погоду видимость может ухудшаться дымом, пылью или мглою.
Атмосферные явления - указаны явления, наблюдавшиеся в указанный момент времени.
Облачность - указаны через наклонную черту верхняя и нижняя облачность в баллах и высота нижней границы облаков в метрах. Внимание: облачность, как и прочие метеорологические величины в США измеряются автоматическими метеостанциями. Указанные значения в баллах носят условный характер и показывают процент времени, в течение которого, в среднем, лазерный луч высотомера отражался от облаков обратно.
T - Температура воздуха - температура, измеренная на высоте 2 м над землей.
Td - Температура точки росы - температура, при понижении до которой содержащийся в воздухе водяной пар достигнет насыщения.
f - Относительная влажность воздуха - влажноcть воздуха, измеренная на высоте 2 м над землей.
Te - Эффективная температура - температура, которую ощущает одетый по сезону человек в тени. Характеристика душности погоды. При расчете учитывается влияние влажности воздуха и скорости ветра на теплоощущения человека.
Tes - Эффективная температура на солнце - температура, которую ощущает человек, с поправкой на солнечный нагрев. Характеристика знойности погоды. Зависит от высоты солнца над горизонтом, облачности и скорости ветра. Ночью, в пасмурную погоду, а также при ветре 12 м/с и более поправка равна нулю.
P - Атмосферное давление - приведенное к уровню моря атмосферное давление.
Po - Атмосферное давление - измеренное на уровне метеостанции атмосферное давление.
Tmin - Минимальная температура - минимум температуры воздуха на высоте 2 м над землей.
Tmax - Максимальная температура - максимум температуры воздуха на высоте 2 м над землей.
R - Количество осадков - Количество выпавших осадков за 3 или 6 часов, мм.
SD - Снежный покров - Высота снежного покрова, см.